Dewpoint
25 22 21 21 22 22 24 26 26 29 36 31 30 30 45 57 58 58 58 58 59 59 60 61 62 63 65 66 68 68 68 69 70 69 69 69 69 69 70 70 70 70 70 71
24 22 23 23 22 22 23 24 20 23 33 29 31 30 33 50 53 53 55 56 57 57 59 60 61 63 65 66 67 68 69 68 69 69 69 69 69 70 70 70 71 71 70 71
23 24 25 22 22 21 19 16 18 19 28 28 32 29 35 36 48 49 54 54 56 56 59 61 61 63 64 65 66 67 68 68 69 69 69 69 69 69 69 69 69 70 71 71
25 25 25 24 22 18 30 18 23 29 26 23 26 24 29 34 43 47 51 53 55 55 58 60 61 62 63 64 66 66 67 68 69 70 69 68 68 67 68 68 68 70 71 71
24 24 22 17 15 14 13 18 26 32 29 35 28 24 28 35 31 39 45 52 54 55 56 58 59 61 63 64 65 66 67 68 69 69 69 68 67 67 69 68 68 69 71 71
25 26 22 20 17 17 22 21 27 37 32 27 30 28 31 35 33 49 45 49 53 55 56 57 59 61 63 64 66 67 67 68 69 69 68 68 67 67 67 68 68 68 69 70
24 25 22 18 19 20 21 20 19 25 32 27 37 30 43 51 54 55 56 53 58 57 58 61 62 62 64 64 66 67 67 67 69 69 68 68 67 67 67 67 68 67 68 68
22 24 27 25 18 18 26 20 19 24 25 25 32 32 44 50 54 57 59 60 60 61 63 65 65 65 64 64 65 67 68 67 68 69 69 69 68 67 67 67 67 67 68 69
28 27 29 25 23 22 25 23 23 22 29 29 32 36 43 50 51 55 59 57 56 55 60 63 59 60 66 64 65 67 68 67 68 69 69 69 69 68 67 67 67 68 68 68
28 25 28 30 25 25 32 24 25 25 24 30 33 34 39 47 50 51 57 62 61 60 58 64 60 64 66 64 65 67 69 70 70 69 69 70 70 70 69 69 68 67 68 69
28 24 24 26 24 23 18 18 24 28 30 30 30 33 42 50 54 51 56 59 62 63 64 65 67 68 65 67 67 67 65 64 66 69 71 71 71 70 70 70 69 69 68 68
32 26 25 21 23 23 21 19 26 26 28 28 31 35 49 53 56 57 60 59 60 61 63 64 65 66 66 64 66 67 65 61 65 66 68 69 72 72 71 70 71 70 69 69
30 23 22 20 19 23 21 21 17 26 23 18 34 37 51 58 58 59 59 59 59 59 60 61 62 63 65 66 66 64 64 64 65 65 65 66 66 70 72 72 71 71 71 70
37 20 17 17 19 23 23 23 20 19 15 17 30 47 52 56 54 54 53 57 58 58 58 57 57 58 60 65 66 65 65 65 65 64 67 65 66 67 69 73 73 72 71 71
19 24 28 24 24 26 26 25 25 20 17 13 32 49 52 54 54 55 56 58 54 53 53 53 53 54 55 57 62 66 66 67 68 69 67 69 70 70 69 70 72 73 73 72
27 24 31 22 27 27 28 32 27 35 44 47 48 47 50 50 53 55 55 54 52 49 49 50 51 52 53 52 52 59 59 61 65 65 65 68 69 68 68 68 69 71 72 72
24 25 22 23 27 27 28 31 33 37 41 45 43 44 44 39 44 49 49 49 49 49 47 46 47 48 50 52 52 51 55 58 58 60 62 65 67 66 66 66 66 67 69 72
27 26 26 22 28 23 29 37 37 37 38 40 40 40 40 42 45 45 44 45 46 47 47 48 48 49 50 51 52 53 53 54 55 58 60 61 65 66 65 65 66 65 67 70
25 29 28 23 25 26 33 33 32 35 36 40 42 43 43 45 46 46 48 48 48 48 48 49 50 50 51 51 51 53 53 53 54 54 55 58 61 65 64 63 64 64 65 66
31 27 26 29 23 22 30 37 38 36 35 42 43 42 42 42 39 42 46 47 48 49 49 49 50 51 52 52 52 52 52 52 53 54 56 58 61 63 64 63 63 62 62 64
32 32 25 29 26 30 37 37 36 31 31 42 43 43 43 41 42 43 47 48 48 48 49 50 51 51 51 51 52 52 53 53 54 55 57 58 60 61 62 63 62 60 60 60
31 32 31 31 31 30 39 38 32 36 43 43 43 43 43 43 44 46 46 46 47 48 49 50 50 51 51 52 52 53 53 54 55 56 57 57 58 59 60 62 62 62 60 59
30 30 31 29 30 36 42 42 45 44 44 45 46 44 45 44 44 45 45 47 47 48 49 51 50 50 51 53 53 53 53 55 56 57 57 57 57 57 60 60 60 61 60 59
34 36 33 33 41 42 43 43 43 44 42 43 44 44 46 45 45 45 47 48 48 49 50 51 51 51 51 53 54 54 54 55 56 56 56 57 57 57 57 57 60 60 60 61
34 35 37 40 43 44 44 44 44 44 45 45 46 46 46 46 47 48 48 49 50 50 51 51 52 52 53 54 54 55 55 56 56 56 57 57 57 57 57 58 59 60 61 61
40 35 36 37 41 40 41 44 45 45 44 46 47 48 49 49 49 50 50 51 51 51 51 52 53 53 53 53 54 55 56 56 56 56 56 56 56 57 58 58 58 53 53 52
Lifted_Index
4 3 2 3 3 3 3 2 2 1 1 1 2 2 0 -2 -3 -3 -4 -4 -4 -4 -4 -3 -3 -3 -3 -3 -3 -3 -3 -3 -3 -3 -2 -2 -3 -3 -3 -2 -2 -2 -3 -3
4 3 3 3 4 3 3 3 2 2 1 2 2 2 1 -1 -2 -3 -3 -4 -4 -4 -4 -4 -3 -3 -3 -3 -3 -3 -3 -3 -3 -3 -3 -3 -3 -3 -3 -3 -2 -2 -3 -3
3 3 4 4 4 4 3 3 2 2 2 2 1 1 1 1 -1 -2 -3 -3 -4 -4 -4 -4 -4 -3 -3 -3 -3 -3 -3 -3 -4 -3 -3 -3 -3 -3 -3 -3 -3 -3 -3 -3
3 3 3 3 3 3 3 3 3 2 2 1 1 1 1 1 0 -1 -2 -3 -3 -4 -4 -4 -4 -4 -3 -3 -3 -3 -3 -3 -3 -3 -3 -3 -3 -3 -3 -3 -3 -3 -3 -2
3 3 3 3 3 3 3 3 2 2 1 1 1 1 1 1 1 0 -1 -2 -3 -4 -4 -4 -4 -4 -4 -3 -3 -3 -3 -3 -3 -3 -3 -3 -3 -3 -3 -3 -3 -3 -3 -3
2 3 3 3 3 3 2 2 2 1 1 0 0 0 0 1 1 0 -0 -1 -3 -3 -4 -4 -3 -3 -3 -3 -3 -3 -3 -3 -3 -3 -3 -3 -3 -3 -3 -3 -3 -3 -3 -3
2 2 3 3 3 2 2 2 1 1 0 0 0 0 -0 -1 -1 -1 -1 -2 -2 -3 -3 -3 -3 -3 -3 -3 -3 -4 -4 -3 -3 -4 -3 -3 -3 -3 -3 -3 -3 -3 -3 -3
1 1 1 2 2 2 2 2 1 0 0 1 1 1 -1 -2 -2 -3 -3 -3 -3 -3 -4 -4 -3 -3 -4 -4 -4 -4 -4 -4 -4 -4 -4 -4 -4 -4 -4 -3 -3 -3 -3 -3
0 0 1 1 2 2 1 1 1 1 1 1 1 0 -1 -2 -3 -3 -3 -3 -3 -3 -4 -3 -3 -3 -4 -4 -4 -5 -5 -5 -5 -5 -4 -4 -4 -4 -4 -4 -3 -3 -3 -3
0 0 0 1 2 2 1 1 1 1 1 1 1 0 -1 -2 -3 -3 -3 -4 -4 -4 -4 -3 -3 -3 -4 -5 -5 -6 -6 -6 -6 -5 -5 -4 -5 -5 -5 -4 -4 -4 -4 -4
0 0 0 1 2 2 1 1 1 1 1 1 1 0 -1 -2 -2 -2 -3 -4 -4 -4 -4 -4 -4 -4 -5 -5 -5 -6 -6 -5 -5 -5 -4 -4 -5 -6 -5 -5 -5 -4 -4 -4
0 0 0 1 1 2 2 1 1 1 1 1 1 1 -1 -2 -2 -2 -3 -3 -3 -3 -4 -4 -4 -4 -4 -5 -5 -6 -5 -3 -2 -2 -2 -3 -5 -6 -6 -6 -6 -5 -5 -5
1 1 1 1 1 2 2 2 2 2 2 1 1 1 -0 -2 -3 -3 -2 -2 -2 -2 -2 -2 -2 -2 -3 -4 -5 -4 -4 -2 -1 -1 -1 -2 -4 -5 -6 -6 -6 -6 -5 -5
2 1 1 1 2 2 2 2 2 2 2 2 1 0 -1 -2 -3 -3 -2 -2 -2 -2 -2 -1 -0 -0 -1 -2 -3 -3 -3 -2 -2 -2 -2 -3 -4 -5 -5 -6 -6 -6 -6 -6
2 2 2 3 3 3 3 3 3 2 2 1 1 -1 -2 -2 -3 -3 -2 -2 -2 -2 -1 0 1 2 2 1 0 -1 -1 -2 -2 -2 -2 -3 -4 -5 -5 -5 -6 -6 -6 -6
3 3 3 4 4 4 4 4 3 3 2 1 -0 -1 -1 -2 -2 -2 -1 -1 -1 -0 1 1 2 3 3 3 3 2 1 1 -0 -1 -1 -1 -3 -3 -4 -4 -4 -5 -5 -5
4 4 3 3 4 4 4 4 4 3 2 1 0 0 0 -0 0 0 0 1 1 2 3 3 3 4 4 4 4 4 3 3 3 2 2 1 -1 -2 -2 -2 -2 -3 -3 -4
5 5 4 3 3 3 4 4 4 3 2 1 1 1 1 1 2 2 2 2 3 3 4 4 5 5 5 5 4 4 4 4 4 3 3 2 1 -1 -1 -0 -0 -1 -1 -1
6 5 5 4 3 3 4 4 4 3 3 3 2 2 2 3 3 3 3 3 4 4 5 5 5 5 5 5 5 4 4 4 3 3 3 2 1 -0 -1 -0 0 1 0 0
5 5 4 4 3 3 4 4 3 3 3 3 3 3 3 3 3 4 4 4 4 5 5 5 5 5 4 4 4 4 4 3 3 2 2 2 1 0 -1 -1 -0 0 1 1
4 4 4 4 3 3 4 3 3 3 3 3 3 3 3 4 4 4 4 4 4 4 4 4 4 4 3 3 3 3 2 2 2 2 1 1 1 0 -0 -1 -1 -0 0 0
3 3 3 3 3 4 4 4 3 3 4 3 3 4 4 4 4 4 4 4 4 3 3 2 3 3 2 2 2 2 1 1 1 1 1 1 1 1 0 -0 -1 -1 -0 -0
3 3 3 3 3 4 4 4 4 4 4 4 4 4 4 4 4 4 4 3 3 2 2 1 1 2 2 1 1 1 1 1 1 1 1 1 1 1 1 1 0 0 -0 -1
3 3 3 3 3 4 4 4 4 4 4 4 4 4 4 4 4 4 3 2 2 1 1 1 1 1 1 1 1 1 1 1 1 2 2 2 2 2 2 1 1 1 0 -0
4 4 4 4 3 4 4 4 4 5 5 5 4 4 4 4 3 3 2 2 2 2 2 2 2 2 2 2 2 2 2 2 3 3 3 3 2 2 2 2 1 1 1 0
3 4 4 4 4 4 4 4 5 5 5 5 4 4 3 3 3 3 2 2 2 2 3 3 3 3 3 3 3 2 3 3 4 4 4 3 3 3 2 2 1 2 1 1